Regional Weather Roundup
Issued by NWS Sioux Falls, SD

Home | Current Version | Previous Version | Text Only | Print | Product List | Glossary On
Versions: 1 2 3 4 5 6 7 8 9 10 11 12 13 14 15 16 17 18 19 20 21 22 23 24 25 26 27 28 29 30 31 32 33 34 35 36 37 38 39 40 41 42 43 44 45 46 47 48 49 50
680
ASUS43 KFSD 290002
RWRFSD

WEATHER ROUNDUP FOR SE SOUTH DAKOTA/SW MINNESOTA/NW IOWA
NATIONAL WEATHER SERVICE SIOUX FALLS SD
700 PM CDT TUE MAR 28 2017

NOTE: "FAIR" INDICATES FEW OR NO CLOUDS BELOW 12,000 FEET WITH NO
SIGNIFICANT WEATHER AND OR OBSTRUCTIONS TO VISIBILITY.


SDZ038>040-050-052>070-290100-
SOUTHEAST SOUTH DAKOTA

CITY           SKY/WX    TMP DP  RH WIND       PRES   REMARKS
BROOKINGS      CLOUDY    56  36  47 E9        30.11
CHAMBERLAIN    CLOUDY    57  36  45 E8        30.10R
6HR MIN TEMP:  56; 6HR MAX TEMP:  61;

HURON          PTCLDY    57  37  47 SE5       30.11R
6HR MIN TEMP:  55; 6HR MAX TEMP:  62;

MADISON        FAIR      55  39  54 E13       30.11R
MITCHELL       MOCLDY    58  37  45 E9        30.11R
6HR MIN TEMP:  57; 6HR MAX TEMP:  62;

SIOUX FALLS    CLOUDY    57  38  48 E12       30.11R
6HR MIN TEMP:  56; 6HR MAX TEMP:  63;

WINNER         LGT RAIN  48  41  76 S8        30.12R
YANKTON        MOCLDY    57  37  47 NE10      30.08R
$$

MNZ071-072-080-081-089-090-097-098-290100-
SOUTHWEST MINNESOTA

CITY           SKY/WX    TMP DP  RH WIND       PRES   REMARKS
FAIRMONT       CLEAR     55  39  54 E9        30.13R
JACKSON        PTCLDY    54  37  54 E9        30.12S
MARSHALL       PTCLDY    59  35  40 E10       30.13R
6HR MIN TEMP:  58; 6HR MAX TEMP:  61;

MONTEVIDEO     PTCLDY    57  34  41 E7        30.14R
PIPESTONE      PTCLDY    55  32  41 SE9       30.12R
REDWOOD FALLS  CLEAR     60  31  33 NE6       30.12R
TRACY          PTCLDY    57  38  48 SE6       30.13R
WINDOM         CLOUDY    55  36  47 E8        30.13R
WORTHINGTON    PTCLDY    54  38  54 E12       30.12R
$$

IAZ001>003-012>014-020>022-031-032-NEZ013-014-SDZ071-290100-
NORTHWEST IOWA

CITY           SKY/WX    TMP DP  RH WIND       PRES   REMARKS
CHEROKEE       PTCLDY    56  38  52 E6        30.10R
DENISON        CLOUDY    50  43  76 E10G16    30.13R
ESTHERVILLE    PTCLDY    53  41  63 E9        30.11R
LE MARS        CLOUDY    57  37  47 E10       30.10R
ORANGE CITY    PTCLDY    55  39  54 E7        30.10R
SHELDON        CLOUDY    55  37  50 E13       30.10R
SIOUX CITY     PTCLDY    57  40  52 SE13      30.08R
6HR MIN TEMP:  57; 6HR MAX TEMP:  63;

SPENCER        PTCLDY    55  40  56 E10       30.12R
6HR MIN TEMP:  55; 6HR MAX TEMP:  61;

STORM LAKE     CLOUDY    52  43  71 SE12G18   30.10R
$$

ABBREVIATIONS USED IN REMARKS
   TC - TEMPERATURE IN CELSIUS
  WCI - WIND CHILL INDEX
   HX - HEAT INDEX
  VSB - VISIBILITY





USA.gov is the U.S. government's official web portal to all federal, state and local government web resources and services.